Wind_Speed
31 32 33 34 34 34 34 35 35 36 38 40 42 43 45 45 46 45 45 43 42 39 37 35 34 35 35 36 37 38 40 41 43 44 45 46 46 46 45 45 44 44 44 44 44 44 44 43 42 41 41 41 42 42 42 42 42 41 41 41 42 44 45 46 46 47 47 48 49 49 50 50 49 49 47 46 45 44 44 44 44 45 46 47 47 45
31 31 31 32 31 32 32 32 32 32 33 35 37 39 40 41 41 41 42 42 42 42 40 39 37 36 35 35 35 36 37 39 40 42 43 44 45 45 45 45 44 44 44 44 44 44 44 44 43 42 42 42 42 42 42 42 42 42 41 41 42 43 44 45 46 47 48 48 49 50 50 50 50 49 48 47 47 46 46 45 45 46 47 47 47 45
30 30 30 30 30 30 30 30 30 29 30 31 33 35 36 36 37 37 38 38 39 40 40 40 40 39 37 37 36 37 38 39 40 41 43 44 44 45 45 45 45 45 44 44 44 44 44 44 43 43 43 44 44 43 43 42 42 42 42 41 42 42 44 45 46 47 48 49 50 51 51 51 50 49 48 48 48 48 48 47 47 47 47 48 47 46
28 28 29 30 30 29 28 27 27 28 28 29 30 31 31 32 32 33 34 34 35 36 38 39 39 39 39 39 39 39 40 40 41 42 43 44 45 45 46 45 45 45 45 45 44 44 44 43 43 44 45 46 46 46 44 43 42 42 42 42 42 42 43 45 46 48 49 50 51 52 52 51 50 49 48 48 48 49 49 48 48 48 48 48 47 46
26 27 28 28 28 27 27 26 26 27 28 29 30 30 29 29 29 29 30 30 31 32 34 35 36 36 37 38 40 40 41 41 42 43 44 45 45 46 46 46 46 46 45 45 45 45 44 44 44 45 47 48 49 48 46 45 43 43 42 42 42 42 43 44 46 47 49 50 52 52 52 52 50 49 47 47 48 49 50 49 49 49 49 48 48 47
26 25 26 26 26 26 26 25 25 25 27 29 30 29 29 29 29 28 28 28 28 28 29 30 31 32 33 35 37 38 40 41 42 43 45 46 46 47 47 48 48 47 47 46 46 46 46 45 45 46 47 49 50 49 48 47 45 44 43 43 42 42 42 43 45 46 48 50 52 52 52 51 49 47 46 46 48 50 51 50 50 50 49 49 48 47
25 24 24 24 25 24 24 22 22 23 26 29 30 30 30 30 30 29 29 29 29 28 28 29 29 29 30 31 32 34 35 38 40 43 45 46 47 47 48 48 49 50 49 48 47 47 47 46 46 46 47 49 50 50 50 49 48 47 46 45 44 43 42 43 43 45 47 49 50 51 51 50 48 47 46 47 49 51 52 52 51 51 50 50 49 47
25 25 24 24 25 25 24 22 21 22 25 28 30 31 31 31 31 31 31 30 30 31 31 30 30 29 29 29 29 29 30 32 34 37 40 42 43 43 44 46 47 49 50 50 50 49 48 48 47 47 48 49 50 51 52 51 51 49 48 47 46 45 44 43 43 44 45 47 48 49 49 49 48 47 47 49 51 53 53 53 53 52 52 51 50 48
25 26 26 25 25 26 25 24 23 24 26 27 29 30 32 32 33 33 32 31 31 31 32 32 32 31 31 30 29 29 28 28 29 30 31 33 35 37 39 40 42 44 46 48 49 50 50 49 48 48 48 48 50 51 52 53 53 52 51 49 49 48 47 45 44 44 44 45 46 47 48 48 48 48 49 51 53 54 54 54 54 54 53 52 51 49
25 26 26 26 26 25 25 26 26 27 28 28 28 29 30 32 34 34 34 33 32 31 31 32 33 33 33 32 31 31 30 29 28 27 26 26 27 29 31 33 35 37 39 41 44 46 48 49 48 47 47 47 48 49 51 53 54 55 54 52 50 50 50 49 47 46 45 45 46 47 48 48 49 50 52 53 54 55 55 55 55 55 54 53 52 50
26 26 26 27 27 26 25 26 27 29 29 29 29 29 30 31 34 35 36 36 34 32 31 31 32 33 34 34 34 33 33 33 31 29 26 24 23 23 24 26 27 29 31 33 35 39 42 45 46 45 45 45 46 47 49 52 54 55 55 52 51 50 51 52 51 49 47 47 47 47 49 50 52 53 53 54 54 55 56 56 56 56 55 54 52 50
26 26 27 27 27 27 26 27 29 30 31 32 32 33 33 33 34 35 36 37 37 35 34 33 32 32 33 34 35 36 36 37 36 34 31 28 25 24 24 25 25 24 25 26 27 30 34 38 41 42 42 42 43 45 47 50 52 53 53 52 50 50 51 52 53 52 51 49 49 49 51 52 53 54 54 54 55 56 57 57 56 56 55 54 53 50
26 26 26 27 27 27 28 29 31 32 33 33 33 34 35 35 35 35 35 36 36 36 36 35 33 32 31 32 33 34 36 38 39 38 36 33 31 29 28 27 26 24 22 21 21 22 24 30 32 34 36 38 39 40 41 45 48 50 52 52 51 50 50 51 52 52 52 51 51 51 52 53 54 54 54 55 56 56 57 57 56 55 54 54 53 51
26 27 27 27 27 27 28 30 31 32 32 33 33 34 35 35 35 35 35 35 35 36 36 36 35 33 31 29 30 31 33 36 38 39 38 37 35 33 32 31 29 27 24 22 20 18 17 20 24 28 30 31 30 29 30 33 38 43 48 50 51 51 51 51 51 51 51 51 51 52 52 53 54 54 55 55 56 56 56 56 56 55 53 53 51 50
27 27 27 27 27 28 28 29 30 30 31 32 33 34 35 35 35 35 35 36 36 36 37 36 36 35 32 29 28 29 31 33 36 37 38 38 36 35 34 34 34 32 29 27 25 22 18 16 17 19 22 24 26 26 23 23 27 33 39 43 47 49 50 50 50 50 50 50 50 50 51 52 53 54 54 55 55 55 56 56 55 54 52 51 50 48
25 25 25 26 27 27 27 28 29 30 31 32 33 34 35 35 35 35 34 35 36 37 36 37 37 36 34 30 28 28 30 33 35 36 37 37 37 35 34 34 35 35 33 32 31 28 24 21 18 16 16 18 21 23 23 23 24 27 30 35 39 43 46 48 48 48 48 48 48 49 50 51 52 52 53 53 54 54 55 55 54 53 51 50 48 46
23 23 23 24 25 26 27 28 29 30 32 33 33 34 34 34 34 34 34 34 35 35 35 35 35 35 35 35 32 30 31 33 35 36 36 36 36 35 34 34 34 35 35 35 34 32 30 27 24 21 18 17 17 17 18 20 23 26 29 31 34 38 41 44 46 47 47 47 47 48 49 50 50 50 51 51 52 53 54 54 53 51 50 48 46 44
21 21 22 23 24 26 27 29 30 31 32 33 34 34 33 32 32 32 33 33 33 33 33 33 32 31 33 35 35 33 32 33 35 36 36 36 35 33 32 32 33 34 35 35 35 34 33 31 29 26 23 21 19 17 17 18 20 23 27 31 34 36 39 41 43 45 46 46 46 46 47 48 48 49 49 50 51 52 52 52 51 49 48 46 45 43
20 21 22 23 25 26 28 29 30 31 32 32 32 32 32 31 31 31 32 32 31 31 31 31 31 31 31 34 35 35 32 33 34 35 35 36 35 32 30 30 30 32 33 34 34 34 33 32 31 30 28 26 24 24 23 22 21 22 24 28 32 36 39 41 42 44 44 44 44 45 45 46 47 47 48 49 50 50 49 49 48 47 46 45 43 42
21 22 22 24 26 28 29 29 29 29 30 29 29 29 29 29 30 30 31 31 32 31 31 30 30 30 32 35 37 35 32 32 32 33 34 35 34 32 30 29 29 30 30 31 31 31 31 32 32 31 29 28 27 26 27 27 26 25 24 25 29 34 38 41 43 44 44 44 43 43 43 44 45 46 48 48 48 48 47 46 46 45 45 44 43 42
23 24 25 25 26 27 28 28 27 26 26 26 27 27 27 28 29 30 30 31 32 32 32 31 31 32 34 36 36 35 32 30 30 30 32 34 34 32 30 28 28 28 28 28 28 28 28 29 30 30 30 29 27 27 27 28 28 27 25 25 27 31 35 39 43 44 45 44 43 42 42 43 44 45 47 48 48 47 46 46 46 45 45 44 44 43
25 26 26 24 24 24 25 25 25 24 24 24 25 25 26 27 28 29 30 31 31 32 32 32 33 34 35 36 35 34 31 28 27 27 30 32 33 32 30 29 28 28 28 28 28 27 26 26 27 27 27 27 27 26 27 27 27 26 25 24 24 27 32 37 41 45 46 46 45 43 42 42 43 45 47 48 48 48 47 47 47 46 46 45 45 45
25 26 25 23 22 22 22 23 23 23 22 22 23 24 25 25 26 27 28 30 31 32 33 35 35 36 35 35 34 32 29 26 25 25 27 30 31 31 30 30 30 30 30 30 28 27 25 24 23 23 24 24 24 24 25 26 25 24 23 21 21 23 27 32 38 44 48 49 48 47 45 44 43 44 46 47 48 48 48 48 47 47 46 46 46 47
25 25 24 23 21 20 20 20 21 21 21 22 22 23 24 24 24 26 28 30 31 33 34 35 35 35 34 33 32 30 28 26 25 25 26 27 29 30 30 30 31 32 32 31 30 28 27 24 22 21 20 21 21 22 23 24 24 23 21 18 17 17 20 25 31 39 46 51 52 52 50 47 46 46 47 47 48 48 48 48 48 47 47 47 47 48
24 23 23 22 20 18 18 18 18 19 20 21 22 22 23 23 25 27 28 30 30 31 32 32 32 33 33 33 33 31 29 28 26 25 24 26 28 29 30 30 31 33 35 34 32 31 30 28 25 22 20 19 19 20 22 24 24 23 20 18 16 14 13 16 21 30 39 48 53 56 55 53 51 49 49 49 49 50 49 49 49 49 49 50 50 51
24 23 22 21 19 17 16 16 16 17 18 19 19 20 21 23 25 27 28 28 29 29 29 30 31 32 32 32 32 32 31 30 27 24 21 23 27 30 31 31 32 35 37 36 35 34 34 32 29 26 23 21 21 21 22 23 24 23 22 20 19 17 15 13 14 19 29 39 47 53 57 57 55 53 52 51 51 52 52 52 52 53 53 53 54 55
24 23 23 21 20 18 17 17 18 18 18 18 18 19 21 23 25 26 26 26 27 27 27 27 28 30 31 32 32 33 33 31 27 22 20 22 27 30 32 32 33 35 37 37 36 34 34 33 31 28 26 24 22 22 22 23 24 25 24 24 23 22 20 18 15 13 19 28 37 45 52 55 56 55 54 53 53 53 54 54 55 55 56 57 57 58
24 24 23 23 22 21 20 20 20 20 20 19 19 19 20 22 23 23 23 24 25 25 24 24 25 27 29 31 32 33 33 29 24 21 22 24 28 31 33 33 33 33 34 35 35 33 32 31 29 27 25 24 23 22 22 23 23 25 26 27 26 25 24 23 20 16 13 18 26 35 44 50 53 54 54 54 53 54 54 55 56 57 58 59 60 61
25 25 24 23 23 23 23 23 23 22 21 20 19 19 19 20 19 19 20 22 22 22 22 22 23 25 27 30 32 33 31 26 23 23 26 28 31 33 34 33 32 31 32 34 35 35 33 30 28 26 25 24 23 22 22 22 22 24 26 28 29 28 27 25 23 19 14 11 15 23 34 43 49 52 53 53 53 53 53 54 55 56 58 58 59 60
27 26 25 24 24 24 24 24 23 22 21 20 18 18 17 17 17 17 18 20 20 20 20 22 23 24 26 29 31 31 28 25 24 26 29 31 32 33 34 33 31 30 30 32 34 35 34 32 29 28 28 27 26 25 23 23 22 22 24 26 28 29 29 27 25 21 16 11 9 12 21 31 41 48 51 51 50 50 51 51 52 52 53 54 54 54
28 27 26 25 25 24 24 23 23 22 21 19 18 17 16 16 16 16 17 18 18 18 19 21 22 23 25 25 26 26 26 27 28 29 30 30 31 32 32 32 30 29 28 29 29 29 30 31 31 31 31 31 30 28 26 25 23 23 22 23 25 26 28 28 26 23 18 13 10 8 10 18 29 39 45 47 47 46 46 46 46 46 46 47 47 48
27 26 25 25 25 24 23 23 22 21 20 19 18 17 16 15 15 15 16 16 16 17 18 19 21 22 23 24 24 24 27 29 29 29 29 29 30 30 29 29 29 29 27 27 27 27 27 29 33 35 34 33 32 30 28 26 25 24 23 23 23 23 24 25 26 24 20 15 11 9 7 8 15 26 35 40 42 42 41 41 41 42 43 44 45 45
25 24 24 24 24 24 23 23 22 21 20 19 18 18 17 16 15 15 14 15 15 15 16 18 20 22 23 24 25 27 28 28 28 28 27 27 27 27 27 27 28 29 29 28 28 28 28 30 34 36 36 35 33 31 29 28 26 25 24 24 23 22 22 22 23 22 21 17 13 10 9 7 6 12 22 30 36 38 38 38 39 40 42 43 45 46
24 23 24 24 24 24 23 23 22 21 20 20 19 19 18 17 16 15 14 14 14 14 15 17 19 20 22 24 26 27 28 27 26 25 24 22 22 24 25 27 28 29 29 29 29 29 30 31 34 35 36 36 34 32 30 29 28 26 25 24 24 23 22 21 20 20 20 18 14 12 11 11 8 6 10 19 26 31 33 35 36 38 40 42 44 46
24 24 24 24 24 24 24 23 23 22 21 21 20 19 19 18 17 16 15 14 14 14 15 16 17 18 20 22 24 26 27 26 24 22 20 17 18 22 24 26 27 27 28 28 28 29 30 31 32 33 35 35 35 33 31 30 29 28 26 25 24 24 23 22 21 20 20 19 16 14 13 13 12 9 5 9 16 22 26 29 32 34 37 39 42 44
25 25 25 25 25 25 25 24 24 23 22 22 21 20 19 19 18 18 17 16 15 15 15 15 15 16 17 19 21 23 24 24 22 20 17 14 16 20 24 25 25 24 25 26 26 27 29 30 31 32 33 33 34 33 32 31 30 30 28 27 25 24 23 22 22 21 20 20 19 17 15 15 15 13 9 4 7 13 18 22 25 28 32 35 37 40
25 26 26 25 26 26 26 25 25 24 24 23 22 21 21 20 20 19 19 18 18 17 17 16 16 16 16 16 18 19 20 21 20 18 15 13 14 17 21 22 22 21 22 23 25 26 27 29 30 31 31 31 31 32 33 33 33 32 31 30 28 25 23 21 21 20 20 20 20 20 19 17 16 16 15 11 5 6 10 14 18 22 26 29 32 35
26 26 26 26 26 26 26 26 26 25 25 24 24 23 23 22 22 22 21 21 21 20 20 19 18 17 16 16 16 16 17 17 17 16 14 13 13 15 18 20 20 20 19 20 21 23 25 27 29 30 30 31 32 33 33 34 34 33 32 31 29 26 23 21 20 19 19 18 19 19 19 17 16 16 17 16 12 8 6 8 12 16 20 23 27 30
25 26 26 26 25 26 26 26 26 25 25 25 24 24 24 24 24 24 23 23 23 23 23 22 21 20 19 18 16 16 15 15 15 15 13 12 12 13 16 18 19 20 20 20 20 21 22 24 26 28 29 31 32 33 34 33 33 32 32 32 31 28 25 22 21 20 19 17 17 18 19 19 17 15 16 17 17 14 11 8 6 9 12 17 21 26
25 25 26 25 25 25 25 25 25 25 25 25 25 25 25 25 25 25 25 25 25 25 25 24 23 22 21 19 18 16 15 15 14 14 13 13 12 13 14 16 19 20 21 22 22 22 23 24 25 27 28 29 31 32 33 33 32 32 31 31 31 30 28 25 23 22 20 17 15 16 18 19 18 17 16 17 17 18 16 13 10 7 7 10 14 20
24 25 25 25 24 25 25 25 25 25 25 25 26 26 26 27 28 28 27 27 27 27 26 26 25 24 22 21 19 18 16 15 15 14 13 13 13 13 14 15 18 20 22 23 24 25 25 25 26 27 28 29 30 31 31 31 31 30 29 28 28 28 28 27 26 24 22 18 15 14 15 17 17 16 14 13 15 17 18 17 14 11 8 7 10 14
23 24 24 24 24 25 25 25 25 25 25 26 26 27 27 28 29 30 30 30 30 29 29 29 29 28 26 24 22 20 18 17 16 15 15 14 14 14 15 16 17 18 21 22 24 25 25 26 26 27 28 28 28 29 30 30 29 28 27 25 25 25 26 26 25 25 23 21 18 16 16 18 18 16 13 13 14 15 16 16 16 14 12 11 11 13
23 23 23 24 24 24 25 25 25 26 26 26 26 27 27 28 29 30 30 31 31 31 31 31 30 30 30 29 27 24 21 19 18 17 17 17 17 17 17 17 18 18 19 21 22 23 24 25 25 25 25 25 26 26 27 28 28 26 24 22 21 21 22 24 24 24 24 22 19 17 16 18 19 18 17 16 15 14 13 14 16 17 16 14 14 14
22 22 23 23 24 24 24 25 26 26 26 27 27 27 28 28 29 30 30 31 31 31 31 31 31 31 32 32 31 29 25 22 20 19 19 19 19 19 19 19 19 19 19 20 21 22 23 24 24 24 24 23 23 24 24 25 24 23 21 18 18 20 23 24 24 24 24 23 20 18 15 15 15 17 18 19 18 17 16 18 20 21 20 18 16 16
21 22 22 23 24 24 25 26 26 26 27 27 27 28 29 29 29 30 31 31 31 32 31 32 32 32 32 32 33 32 30 27 24 22 21 20 20 20 20 20 20 20 19 19 20 21 23 24 24 24 23 22 21 21 20 20 20 19 17 17 19 22 24 23 22 22 23 23 22 20 18 15 13 13 16 19 21 22 23 23 25 25 24 22 19 17
22 22 23 23 24 25 25 26 26 27 27 27 28 28 29 29 30 30 31 31 32 32 32 32 31 31 32 32 33 33 33 32 30 27 25 23 21 21 20 20 20 20 20 19 19 19 20 21 22 22 22 21 20 18 17 16 16 17 17 18 20 22 22 20 20 19 20 21 21 22 21 17 14 13 13 15 17 20 22 23 23 23 23 22 20 18
22 23 23 24 25 25 25 26 26 27 28 28 29 29 29 30 30 31 31 31 32 32 33 32 32 31 31 31 32 32 32 33 33 32 30 28 25 23 22 21 20 20 20 20 19 19 19 19 19 19 19 19 18 17 15 14 15 17 18 19 19 19 19 18 17 16 16 16 17 20 21 20 18 16 15 14 14 16 18 19 19 19 19 18 19 18
22 23 23 24 25 25 26 26 27 28 29 29 30 30 30 30 30 31 31 32 32 33 33 33 33 32 32 31 31 31 31 32 33 34 34 32 30 28 26 24 23 22 21 20 20 20 20 19 18 17 16 15 15 16 16 15 15 16 18 18 18 18 18 17 15 14 13 13 15 17 20 21 21 20 19 17 15 15 16 16 16 16 16 16 17 18
22 22 23 24 24 26 26 27 27 28 29 30 30 31 30 30 31 31 32 32 33 33 33 33 33 33 33 33 33 32 31 32 33 34 34 34 33 32 30 29 28 26 25 23 23 22 21 20 17 15 14 13 13 15 16 17 18 18 18 18 19 19 19 19 17 15 14 14 15 16 18 20 21 21 21 19 18 16 16 16 16 15 15 16 16 17
21 22 22 23 24 25 26 27 27 28 29 30 30 31 31 31 31 32 32 33 33 33 33 33 33 33 33 33 33 33 32 33 34 35 35 34 33 33 33 32 32 32 31 29 28 27 26 24 21 17 13 12 13 15 17 20 21 21 21 20 20 21 21 21 20 19 17 16 16 16 16 18 19 20 20 19 18 17 16 15 15 15 14 15 15 16
22 21 22 22 23 24 25 26 27 28 29 30 30 31 32 32 33 33 33 33 33 34 34 34 33 33 33 33 33 33 33 33 34 35 35 35 34 34 34 33 33 33 33 33 33 32 31 30 28 24 19 15 14 16 19 22 23 24 24 23 22 22 23 23 23 22 20 19 18 16 16 16 16 17 18 17 17 17 18 17 15 13 13 13 14 15
Wind_Direction
296 296 296 295 295 294 294 293 294 293 290 288 287 285 283 282 280 278 276 274 274 275 276 276 273 269 265 263 263 263 265 266 268 269 269 270 270 269 269 268 268 269 269 270 270 270 270 268 267 265 264 263 263 263 263 263 261 260 257 254 251 249 246 245 244 244 244 244 243 243 242 240 239 239 239 239 240 240 240 239 238 238 240 242 244 245
299 299 299 299 299 298 297 298 299 298 297 294 292 289 288 287 285 282 279 276 274 273 273 274 274 273 269 265 261 259 259 260 262 264 265 266 267 267 266 266 266 266 267 268 269 270 270 269 268 266 264 263 262 262 262 262 261 259 257 255 252 249 247 245 244 243 243 243 243 243 242 241 240 239 240 240 241 241 240 239 238 238 239 241 243 245
304 304 303 302 303 302 302 303 303 302 300 298 295 292 291 290 289 287 285 282 278 275 273 272 273 273 272 269 265 261 258 257 257 258 259 260 261 262 262 262 262 263 264 265 266 267 268 268 267 266 264 262 261 261 261 261 260 259 257 255 253 250 247 245 244 243 243 243 243 243 243 242 241 241 241 241 242 241 241 239 238 237 238 240 242 244
312 312 309 308 306 306 307 308 307 305 303 299 296 294 294 293 292 291 289 286 283 279 275 273 272 272 272 271 269 267 263 261 259 258 258 258 258 258 258 258 259 260 261 262 263 264 265 266 265 263 261 260 260 260 260 260 259 258 256 255 253 251 249 247 245 243 243 243 243 243 243 243 242 242 242 243 243 243 242 240 238 238 238 240 242 243
322 321 318 316 315 314 313 314 312 309 305 300 297 296 296 296 295 293 291 288 285 281 277 274 272 270 269 269 269 267 265 263 261 259 259 258 258 258 257 257 257 257 258 260 261 262 263 263 263 261 260 259 258 258 259 258 258 256 255 254 253 251 250 248 246 244 243 243 243 243 244 243 243 244 244 246 246 245 243 241 239 239 239 240 241 243
326 327 327 326 324 323 322 322 320 315 309 303 300 300 300 299 298 296 294 291 287 283 279 274 270 267 266 265 264 263 262 260 259 258 258 258 258 258 257 257 256 256 256 257 258 259 260 261 261 261 259 258 258 258 258 257 257 256 255 253 252 251 250 248 247 246 244 243 243 243 243 243 244 245 247 248 249 248 245 242 240 239 240 241 242 242
329 330 331 330 328 328 328 330 328 322 313 308 306 305 303 301 299 298 296 295 293 289 284 277 271 266 263 261 259 258 257 255 254 254 254 255 256 256 257 257 257 257 257 256 255 256 257 258 259 260 259 258 257 257 257 257 256 255 254 253 252 251 249 248 247 246 245 244 243 243 242 243 243 245 247 249 250 250 247 243 241 240 240 241 242 242
333 332 333 333 332 331 331 333 329 322 316 315 314 312 309 305 302 299 297 296 295 293 290 284 277 271 265 261 258 257 257 256 254 253 252 252 253 254 255 256 257 257 257 257 255 254 254 255 256 257 258 258 257 257 256 256 255 254 253 253 252 251 249 248 246 246 245 244 244 243 242 243 243 244 246 247 250 250 248 245 242 241 241 241 241 241
336 335 335 335 335 335 334 333 327 322 321 321 322 321 318 314 310 304 300 297 295 295 293 290 285 278 271 266 263 263 263 264 263 261 262 259 256 254 254 254 254 254 255 255 255 254 253 252 253 255 257 257 257 256 256 255 255 254 253 252 251 250 249 247 246 245 244 244 244 244 243 243 243 244 244 245 248 250 249 245 242 241 241 241 241 240
336 336 335 335 335 336 336 333 328 325 326 326 326 326 326 324 321 316 310 305 300 297 296 294 292 288 281 274 270 269 270 271 271 271 271 268 262 257 253 252 252 251 251 251 252 252 252 251 251 252 254 256 257 256 256 255 254 254 254 253 251 249 247 245 244 244 244 244 244 244 244 243 243 242 242 244 247 249 249 246 243 241 241 241 240 240
337 336 336 336 336 336 335 333 330 329 329 328 328 328 328 329 329 327 323 318 313 308 303 300 299 297 293 286 280 277 277 277 276 275 274 272 267 261 255 251 250 248 247 247 247 248 248 248 248 249 251 253 255 256 256 255 254 254 255 254 253 250 246 244 242 242 242 243 244 244 243 243 242 241 241 243 247 249 249 246 243 241 240 240 239 239
337 337 337 337 337 337 336 333 331 331 332 333 333 333 332 332 332 331 329 326 323 320 315 310 305 303 303 299 294 289 286 284 283 280 278 275 273 270 265 259 254 250 248 246 245 245 245 244 245 245 246 249 252 254 255 255 255 255 256 256 255 252 248 245 242 241 241 242 242 242 242 242 242 241 242 245 247 249 248 245 242 241 240 239 239 238
336 336 337 337 337 338 338 337 336 336 336 337 336 335 333 331 331 331 328 327 326 325 323 319 315 311 309 308 305 301 296 291 288 285 283 281 280 279 277 272 267 263 260 258 255 251 247 243 242 243 243 245 248 253 256 257 257 257 257 257 257 255 251 248 244 242 242 242 242 242 242 242 242 243 244 246 247 247 246 243 241 241 241 240 239 237
335 336 337 338 338 338 339 338 338 337 336 335 333 331 330 329 329 329 328 326 325 325 325 324 321 318 315 313 311 309 304 299 294 290 286 284 283 283 283 280 277 275 278 279 278 274 265 252 244 240 240 241 245 251 258 262 264 262 261 259 258 256 254 251 248 245 244 243 243 243 243 243 244 244 245 246 246 245 243 241 240 240 240 240 239 238
335 336 337 337 337 338 338 337 336 334 331 330 329 328 328 328 329 329 329 327 326 326 326 325 323 321 319 318 317 314 312 308 304 298 292 286 284 285 286 284 281 280 282 286 288 289 287 276 260 247 240 236 238 243 249 257 264 266 264 262 259 257 255 252 249 247 245 245 244 244 244 244 245 245 245 245 244 242 240 238 238 238 239 239 239 238
334 335 335 334 334 334 334 333 331 329 326 326 326 327 328 329 330 330 329 328 327 327 327 327 326 324 322 320 320 320 320 318 315 310 302 293 287 287 289 289 286 283 283 285 288 290 292 288 281 267 251 241 236 235 237 241 246 251 255 256 257 256 255 253 250 247 246 245 245 245 245 245 244 244 243 243 241 239 238 237 236 236 237 236 236 234
330 332 331 330 330 329 328 327 325 323 322 323 325 326 328 330 330 330 329 328 327 327 327 327 326 325 323 322 321 323 326 325 323 318 313 304 296 292 293 294 293 290 286 286 287 289 290 289 287 283 274 262 251 244 240 240 240 241 242 243 246 249 251 251 250 248 246 246 245 245 245 244 243 242 241 240 238 237 236 235 235 234 234 233 231 229
326 327 326 326 325 324 323 322 321 321 322 323 325 327 329 329 330 329 328 327 327 326 326 325 323 321 320 320 320 323 328 328 326 324 320 313 306 302 301 301 299 296 292 289 288 289 289 288 286 286 285 282 278 274 268 261 253 246 241 238 238 240 243 246 247 247 246 246 245 245 244 242 241 240 238 237 235 234 234 233 232 231 230 228 226 223
321 321 322 322 321 321 321 321 321 322 322 324 327 329 331 330 328 326 325 325 324 323 322 321 320 318 316 315 316 320 326 327 326 324 322 318 316 314 313 311 308 303 298 294 292 291 289 286 284 283 284 287 289 289 288 284 276 264 251 242 237 236 236 239 241 243 244 245 245 244 243 241 239 237 235 233 232 231 231 230 229 227 226 224 222 220
318 317 318 319 320 321 321 321 322 323 324 326 328 330 329 327 325 323 323 323 322 320 319 318 316 315 313 312 314 318 323 324 323 322 322 320 320 321 323 321 316 310 304 299 296 294 291 287 284 281 281 284 287 291 294 294 290 281 267 252 242 236 234 235 236 238 240 242 242 242 241 240 237 235 232 230 228 227 227 226 226 225 224 223 223 223
314 314 315 319 321 320 319 320 322 324 326 328 329 329 326 323 321 321 321 320 319 317 316 315 313 311 311 310 311 316 321 322 322 322 321 320 319 321 325 326 323 316 310 305 302 299 295 290 286 283 281 282 284 289 295 298 297 292 281 266 251 241 236 234 234 235 237 238 239 239 239 239 236 233 230 227 225 224 223 223 224 225 225 226 228 229
312 313 317 322 322 320 318 319 322 325 327 329 328 324 321 319 319 320 319 317 315 313 312 311 310 309 309 309 311 315 318 319 320 321 320 317 316 318 324 327 325 319 314 309 306 302 298 294 290 286 283 282 282 285 291 296 299 297 291 278 263 249 240 235 234 234 235 235 236 237 237 237 235 233 230 227 224 223 222 223 224 226 229 231 233 236
315 316 320 324 324 322 320 320 322 325 325 324 320 316 314 315 316 316 314 311 309 309 308 308 308 309 309 310 312 314 317 317 317 317 317 314 313 317 322 323 321 316 312 309 306 304 301 298 295 291 288 284 283 283 285 289 294 298 299 291 276 260 248 240 235 234 234 235 235 235 236 236 235 233 231 229 227 225 225 226 228 230 233 236 238 240
321 322 323 325 325 323 321 321 321 321 319 315 312 311 311 312 311 308 305 304 305 306 307 308 309 310 312 314 315 316 317 318 318 318 318 315 315 316 317 316 313 310 307 305 305 304 303 300 298 295 292 288 285 282 281 282 287 295 302 303 294 278 260 248 240 235 234 234 235 236 237 236 236 235 234 233 232 231 231 232 234 236 239 241 242 244
326 326 326 326 325 323 320 317 315 312 310 308 308 309 310 308 305 302 301 302 304 306 308 311 313 315 316 317 317 318 319 320 323 325 325 320 315 312 309 308 307 306 304 303 303 303 302 299 297 296 295 292 289 284 279 277 280 287 296 305 309 304 287 265 248 239 235 234 235 237 238 238 238 238 237 237 237 237 237 238 240 242 244 245 246 247
329 328 327 326 325 322 316 310 307 305 304 304 306 308 307 304 302 301 302 305 307 310 313 317 318 318 317 318 318 318 319 323 328 332 330 319 310 305 303 305 306 306 305 305 304 304 303 300 298 296 296 295 292 287 280 275 274 278 286 296 306 313 313 300 271 247 236 234 234 236 237 239 240 240 240 239 240 240 241 242 244 245 246 248 249 249
329 328 327 326 324 321 315 311 308 307 306 305 304 304 303 301 302 304 307 309 311 314 318 321 320 318 317 317 317 317 319 325 331 333 324 311 304 303 305 309 311 311 310 309 308 307 306 304 301 298 296 295 293 288 281 275 272 272 276 283 293 304 313 316 306 274 245 234 232 233 234 237 239 240 241 241 241 242 243 245 246 247 248 249 250 250
328 327 327 326 325 322 318 316 315 314 312 309 306 303 302 302 305 309 313 312 311 314 319 320 320 318 317 316 315 316 319 325 329 326 316 309 308 309 313 316 318 319 319 317 315 312 310 308 306 303 300 298 294 289 283 278 274 271 271 274 281 290 302 312 316 307 276 246 234 231 231 233 234 237 238 240 241 242 244 245 246 247 247 248 248 248
329 328 327 327 325 323 321 320 321 320 318 315 311 308 306 306 308 310 312 310 311 315 318 318 317 316 315 314 314 315 318 323 324 320 317 316 316 317 319 321 323 325 327 325 323 320 317 315 315 313 310 305 299 293 289 285 281 276 272 271 274 281 290 302 311 316 308 280 249 237 232 231 231 232 234 236 238 240 241 243 244 244 244 245 245 245
330 329 328 327 326 325 324 325 325 325 324 321 318 314 311 310 309 308 307 307 310 313 316 316 316 315 315 315 316 316 317 319 320 319 320 321 321 320 321 322 324 327 330 330 328 325 322 320 319 319 316 312 306 301 298 296 294 289 283 278 277 279 284 293 303 311 316 315 294 259 241 234 231 230 231 233 234 236 237 238 239 239 240 240 240 241
330 331 331 330 329 328 328 329 329 329 328 326 323 321 319 317 315 313 311 310 310 312 314 315 315 315 316 317 316 314 312 314 317 319 321 322 320 319 320 321 323 325 329 331 328 323 320 319 318 318 317 316 312 308 306 306 307 306 302 296 290 287 287 291 297 304 312 322 327 312 271 244 234 231 230 230 231 232 233 233 234 235 236 237 238 239
332 333 333 333 333 333 334 334 334 334 333 331 330 328 326 325 323 321 318 315 314 313 314 314 314 313 313 312 310 306 306 309 314 318 319 319 317 317 318 320 322 323 325 327 326 321 315 315 316 317 318 318 317 314 311 310 312 315 315 312 308 303 298 295 296 299 305 315 329 338 327 279 244 233 229 228 229 229 230 232 233 235 236 238 239 240
335 337 337 338 338 339 340 341 341 340 340 338 337 335 333 331 329 327 325 322 319 317 317 317 316 314 312 310 308 306 306 309 314 317 318 318 317 317 318 320 322 322 322 323 323 321 315 314 315 317 318 318 319 318 316 314 314 317 319 320 319 316 311 306 301 299 300 307 320 336 344 336 286 241 230 227 227 229 230 232 235 236 238 239 240 241
340 342 343 344 345 346 347 347 347 347 346 345 343 341 339 337 335 333 331 329 326 324 323 322 319 317 315 314 312 310 310 312 316 319 319 320 320 320 320 321 322 323 323 323 323 322 319 317 318 319 318 318 318 318 318 318 317 317 318 320 321 322 320 317 311 304 299 300 309 326 338 340 332 288 234 224 224 227 230 232 234 236 238 239 240 241
346 347 348 349 350 351 352 353 353 353 352 351 349 347 345 343 341 340 339 337 335 332 329 326 323 321 319 317 315 314 314 317 320 322 323 324 323 322 321 321 321 322 323 324 325 324 321 320 320 320 319 318 317 317 318 319 318 317 316 317 319 321 323 323 319 311 303 297 299 310 325 331 332 326 288 225 218 221 226 229 231 233 235 237 238 239
352 353 353 353 353 353 354 355 356 356 356 355 354 352 350 348 347 345 344 343 341 338 335 332 329 327 324 321 318 317 317 320 322 324 325 326 324 322 320 318 318 321 323 325 326 325 323 321 320 318 317 317 317 317 317 317 317 317 316 315 316 318 321 323 322 317 309 300 296 298 308 320 328 333 331 299 219 214 220 224 227 229 231 233 235 236
357 357 356 355 354 354 355 356 357 357 357 358 357 355 353 352 351 350 349 348 346 343 340 337 335 334 332 328 325 322 322 323 324 326 327 326 322 319 316 314 314 317 322 324 325 325 323 321 318 317 315 315 315 315 315 315 316 316 316 316 315 316 318 322 323 321 315 306 299 296 298 309 324 333 334 331 305 231 218 220 223 226 228 229 231 233
359 358 356 355 355 355 355 356 356 357 358 358 358 357 356 355 354 353 352 351 349 347 344 342 340 339 337 336 333 331 330 330 330 330 329 325 320 316 313 311 310 312 315 317 319 320 321 319 317 316 314 311 310 310 311 312 314 315 315 314 313 312 313 317 322 323 321 315 307 301 299 304 315 326 327 324 318 302 262 229 222 223 226 228 230 231
357 357 356 355 354 355 355 355 356 357 357 357 358 357 357 357 356 356 354 353 352 350 348 346 343 342 340 340 340 340 340 339 338 337 333 327 320 314 312 311 309 307 306 306 307 309 312 312 311 311 311 309 308 307 307 309 311 313 313 313 312 311 310 312 317 322 324 321 315 309 304 304 308 315 319 318 316 312 305 288 253 230 227 229 231 231
356 355 355 354 355 356 356 356 356 357 357 357 358 358 358 357 356 356 355 354 353 353 351 349 346 344 342 342 343 344 345 346 345 343 339 333 325 317 313 311 308 306 302 301 300 301 302 303 302 302 303 305 306 307 307 308 310 311 313 314 314 314 313 312 313 317 320 320 317 311 307 306 307 311 317 321 321 318 314 308 297 274 249 243 240 238
354 353 353 353 356 357 357 356 356 357 357 357 357 358 358 358 358 357 355 355 355 353 352 350 348 345 343 343 345 347 348 349 349 348 345 341 334 327 321 315 310 307 305 303 301 300 300 300 301 301 301 303 304 306 307 308 310 312 314 315 316 315 314 312 311 312 314 313 308 302 300 301 304 309 313 314 314 316 318 314 307 299 289 277 266 256
352 351 351 353 355 356 356 356 356 357 357 357 357 358 359 358 357 357 356 355 355 355 354 352 350 348 346 346 346 347 349 349 350 349 348 346 343 340 335 329 323 317 313 310 307 304 303 302 302 303 303 304 306 306 307 308 310 313 315 317 319 319 318 316 313 312 313 311 305 297 293 294 295 296 292 289 292 301 311 312 308 302 300 300 293 280
350 350 352 354 355 354 354 355 355 356 356 357 358 358 358 357 356 355 354 352 352 352 353 353 351 349 348 348 347 347 348 348 349 349 349 348 347 345 342 339 335 331 326 321 317 313 309 307 306 306 305 305 306 306 307 309 311 314 317 321 324 326 325 324 319 315 312 312 312 309 302 296 292 288 282 278 280 287 295 299 296 293 294 298 299 294
350 351 353 354 354 354 355 355 356 356 356 355 356 357 358 356 355 353 352 350 350 350 350 351 350 349 348 347 347 348 346 347 348 348 349 349 348 346 344 341 339 337 334 331 327 323 318 315 313 312 310 309 307 307 307 309 312 315 318 324 327 325 321 324 323 319 313 312 315 319 318 309 298 287 280 274 272 273 276 281 283 285 288 292 295 295
350 351 352 353 354 355 355 355 355 355 354 354 354 354 356 355 353 352 350 348 347 347 348 349 348 346 344 344 346 347 346 347 347 348 349 349 348 347 344 342 340 338 337 335 332 330 327 324 321 318 315 313 311 310 310 313 317 320 323 327 329 328 325 328 328 326 321 317 316 317 320 320 313 300 288 279 275 273 275 279 283 286 288 290 292 294
350 350 351 352 353 353 353 353 353 353 352 352 352 353 354 353 352 350 349 347 345 345 347 347 346 343 340 340 342 344 344 345 347 348 348 348 347 346 344 343 341 339 337 336 334 332 331 330 328 325 322 319 316 315 317 323 327 330 329 329 329 329 329 332 333 333 330 324 319 315 315 317 319 317 311 299 286 280 280 283 287 290 291 292 293 293
350 350 351 351 351 351 352 352 352 351 350 350 350 351 352 351 350 348 347 346 346 345 345 345 344 341 338 339 339 340 339 340 342 344 345 347 347 346 345 343 341 339 337 336 334 334 334 334 334 332 330 327 325 323 325 329 332 331 327 324 325 327 330 332 331 330 328 325 319 314 311 314 317 319 321 314 301 289 285 287 291 294 294 293 292 291
349 349 350 350 350 350 350 351 350 349 348 348 348 349 350 350 348 346 345 345 346 345 344 343 341 340 338 338 338 339 337 336 337 338 341 343 345 346 346 345 343 340 337 336 335 334 335 337 339 341 339 335 331 329 329 328 326 322 316 313 315 319 321 321 318 316 315 314 312 311 311 313 316 318 318 315 307 297 288 286 289 292 292 290 289 288
349 348 349 349 348 348 348 349 348 347 346 346 345 346 347 348 347 345 344 344 345 344 342 341 339 338 337 337 338 338 337 335 335 336 338 339 342 343 345 346 345 344 341 339 337 335 333 334 339 344 347 343 336 331 328 325 320 315 310 307 307 309 309 307 305 306 308 309 310 310 310 310 312 314 316 315 313 307 296 285 282 284 287 287 286 286
349 348 348 347 346 347 347 346 346 345 344 343 342 342 343 345 346 346 345 345 343 342 340 339 338 336 335 336 336 337 335 334 334 335 337 339 340 341 342 344 345 345 344 343 341 339 337 335 335 339 343 345 340 333 327 324 321 318 314 311 309 306 304 302 302 304 308 310 310 310 308 307 308 310 313 315 317 315 309 297 285 279 280 283 284 284
347 347 346 345 345 345 344 344 343 342 341 340 340 340 341 342 344 344 345 343 342 340 339 338 337 335 334 334 334 334 333 333 333 333 335 338 339 340 340 341 343 343 342 341 341 341 340 338 335 333 334 337 337 333 329 327 326 325 323 320 316 312 308 305 303 302 304 307 309 309 307 306 305 306 309 313 316 318 318 315 307 294 285 280 279 279
Height
1451 1450 1449 1448 1448 1447 1446 1446 1445 1444 1442 1442 1441 1441 1440 1440 1440 1440 1441 1441 1441 1441 1441 1440 1439 1439 1438 1439 1439 1440 1440 1440 1440 1440 1440 1439 1439 1439 1440 1440 1440 1441 1441 1441 1442 1442 1443 1444 1445 1446 1446 1447 1448 1448 1449 1449 1450 1451 1451 1452 1453 1454 1456 1457 1458 1459 1461 1462 1463 1464 1466 1467 1468 1469 1470 1471 1472 1474 1475 1476 1478 1479 1480 1481 1482 1483
1449 1448 1448 1447 1446 1446 1445 1444 1444 1443 1441 1440 1439 1438 1437 1436 1436 1436 1436 1437 1438 1438 1438 1437 1437 1436 1436 1435 1435 1436 1436 1436 1435 1435 1435 1435 1435 1435 1436 1436 1436 1436 1437 1437 1438 1438 1439 1440 1441 1441 1442 1443 1444 1444 1445 1446 1446 1446 1447 1448 1449 1451 1452 1453 1454 1456 1457 1458 1460 1461 1462 1463 1464 1466 1467 1468 1469 1471 1472 1473 1474 1476 1477 1478 1479 1480
1447 1446 1445 1445 1445 1445 1443 1442 1442 1441 1440 1439 1437 1436 1435 1435 1434 1433 1433 1433 1434 1434 1434 1434 1434 1433 1433 1432 1431 1431 1430 1430 1429 1429 1430 1430 1430 1431 1431 1431 1432 1432 1433 1433 1434 1434 1435 1436 1436 1437 1438 1438 1439 1440 1441 1441 1442 1443 1443 1444 1445 1446 1448 1449 1450 1451 1453 1454 1456 1457 1458 1460 1461 1462 1463 1465 1466 1467 1468 1470 1471 1472 1473 1475 1476 1477
1446 1444 1443 1443 1443 1443 1442 1441 1441 1440 1438 1437 1436 1435 1434 1434 1432 1431 1431 1431 1431 1431 1431 1431 1431 1430 1430 1429 1429 1429 1428 1427 1427 1427 1426 1426 1426 1426 1427 1427 1428 1428 1429 1429 1430 1430 1431 1431 1432 1433 1434 1434 1435 1436 1436 1437 1438 1438 1439 1440 1441 1442 1444 1445 1446 1447 1449 1451 1452 1453 1455 1456 1457 1458 1460 1461 1462 1464 1465 1466 1467 1469 1470 1471 1473 1474
1444 1443 1442 1442 1441 1440 1440 1440 1439 1437 1436 1435 1434 1434 1433 1432 1431 1431 1430 1429 1429 1428 1428 1428 1427 1427 1426 1426 1426 1426 1426 1425 1425 1424 1423 1423 1422 1422 1423 1423 1423 1424 1425 1425 1426 1426 1426 1427 1428 1429 1429 1430 1431 1431 1432 1433 1434 1434 1435 1436 1437 1438 1439 1441 1442 1443 1445 1446 1448 1449 1451 1452 1453 1455 1456 1457 1459 1460 1461 1463 1464 1466 1466 1468 1469 1471
1443 1442 1441 1441 1440 1439 1438 1437 1436 1435 1434 1432 1432 1432 1432 1431 1430 1429 1428 1428 1427 1426 1425 1425 1424 1424 1423 1422 1422 1422 1422 1421 1421 1420 1420 1419 1419 1419 1418 1418 1419 1419 1420 1420 1421 1422 1422 1423 1424 1425 1425 1426 1426 1427 1428 1429 1429 1430 1431 1432 1433 1434 1435 1436 1438 1439 1441 1442 1444 1446 1447 1448 1450 1451 1452 1454 1456 1457 1458 1460 1461 1462 1463 1464 1466 1467
1442 1441 1441 1440 1439 1438 1437 1436 1435 1434 1432 1430 1430 1429 1429 1429 1428 1427 1427 1426 1425 1424 1423 1422 1421 1421 1420 1420 1419 1419 1418 1417 1417 1416 1416 1416 1416 1416 1415 1415 1415 1415 1415 1415 1416 1417 1418 1418 1419 1420 1421 1421 1422 1422 1423 1424 1425 1426 1427 1428 1429 1430 1431 1432 1433 1435 1436 1438 1440 1442 1443 1445 1446 1447 1449 1451 1452 1453 1455 1456 1457 1458 1460 1461 1462 1464
1441 1440 1440 1439 1437 1436 1436 1435 1435 1433 1431 1430 1428 1426 1426 1425 1425 1425 1424 1424 1423 1421 1420 1419 1418 1418 1418 1417 1416 1416 1415 1414 1413 1412 1412 1412 1412 1412 1412 1411 1411 1411 1411 1411 1411 1412 1413 1414 1415 1416 1416 1417 1418 1418 1419 1420 1421 1422 1423 1424 1425 1426 1426 1427 1429 1431 1432 1434 1436 1438 1439 1441 1442 1444 1445 1447 1448 1450 1451 1452 1453 1454 1456 1457 1458 1460
1441 1439 1438 1437 1436 1435 1434 1433 1433 1432 1431 1430 1428 1426 1424 1422 1421 1420 1420 1420 1420 1418 1417 1416 1415 1414 1415 1415 1414 1413 1412 1411 1410 1410 1410 1409 1409 1409 1408 1408 1407 1407 1407 1407 1407 1407 1408 1409 1410 1411 1412 1413 1414 1414 1415 1416 1417 1417 1418 1420 1421 1422 1423 1424 1425 1426 1428 1429 1431 1433 1435 1437 1438 1440 1441 1443 1444 1446 1447 1448 1449 1450 1451 1453 1454 1456
1440 1439 1438 1436 1436 1435 1434 1433 1431 1431 1430 1429 1428 1426 1424 1421 1418 1416 1415 1415 1415 1415 1415 1413 1412 1411 1411 1411 1411 1411 1410 1408 1408 1407 1407 1406 1406 1405 1405 1404 1404 1403 1403 1403 1403 1404 1404 1404 1406 1406 1408 1408 1409 1410 1411 1412 1413 1413 1414 1416 1417 1418 1419 1420 1421 1422 1423 1425 1426 1429 1431 1432 1434 1436 1437 1438 1440 1441 1443 1444 1445 1446 1447 1448 1450 1452
1439 1438 1437 1436 1435 1434 1434 1433 1431 1429 1428 1427 1426 1425 1424 1421 1419 1416 1413 1411 1411 1411 1411 1411 1410 1409 1408 1407 1408 1408 1407 1406 1405 1404 1404 1404 1403 1402 1402 1401 1401 1400 1400 1400 1400 1400 1400 1401 1401 1402 1403 1404 1405 1406 1407 1408 1408 1409 1410 1411 1413 1414 1415 1416 1417 1418 1419 1420 1422 1424 1426 1428 1429 1431 1432 1434 1436 1437 1438 1440 1441 1442 1443 1445 1446 1449
1439 1437 1436 1436 1434 1433 1432 1431 1430 1428 1427 1426 1424 1422 1421 1420 1419 1417 1415 1411 1409 1408 1408 1407 1407 1407 1406 1405 1405 1404 1404 1403 1402 1401 1401 1401 1401 1400 1399 1399 1398 1398 1397 1397 1396 1396 1396 1396 1397 1398 1399 1400 1401 1402 1403 1404 1404 1405 1406 1407 1408 1409 1411 1411 1413 1413 1415 1416 1417 1419 1421 1423 1425 1426 1428 1430 1431 1433 1434 1435 1436 1437 1439 1441 1443 1445
1438 1437 1436 1435 1434 1433 1431 1430 1428 1427 1426 1425 1423 1422 1420 1419 1418 1416 1415 1412 1410 1408 1407 1405 1405 1404 1405 1404 1403 1402 1401 1400 1399 1399 1399 1399 1398 1398 1397 1396 1396 1395 1395 1394 1394 1393 1393 1393 1393 1394 1395 1396 1397 1398 1400 1400 1401 1401 1402 1403 1404 1405 1406 1407 1408 1409 1410 1411 1412 1414 1416 1418 1420 1422 1424 1426 1427 1429 1430 1431 1432 1433 1435 1436 1439 1441
1438 1436 1436 1434 1433 1432 1431 1430 1428 1427 1426 1425 1424 1423 1421 1419 1417 1416 1414 1411 1410 1408 1406 1405 1403 1402 1402 1402 1402 1401 1399 1398 1397 1396 1396 1396 1396 1396 1395 1393 1393 1392 1392 1392 1391 1391 1391 1390 1390 1390 1390 1391 1393 1395 1396 1398 1398 1399 1399 1399 1400 1401 1402 1403 1404 1404 1406 1406 1408 1410 1411 1413 1415 1417 1419 1421 1423 1424 1426 1427 1428 1430 1431 1433 1435 1436
1437 1436 1435 1434 1433 1432 1431 1430 1429 1427 1426 1425 1424 1422 1420 1418 1416 1415 1413 1411 1408 1407 1405 1403 1401 1401 1401 1401 1401 1399 1398 1396 1395 1393 1392 1393 1393 1394 1393 1391 1390 1390 1390 1390 1389 1389 1389 1388 1387 1387 1387 1387 1388 1389 1390 1391 1393 1395 1396 1396 1396 1396 1397 1398 1399 1400 1401 1402 1403 1405 1407 1409 1411 1413 1415 1416 1418 1420 1421 1423 1425 1426 1428 1430 1431 1433
1438 1437 1436 1434 1433 1432 1431 1430 1429 1427 1426 1424 1423 1421 1419 1417 1416 1414 1413 1411 1408 1406 1404 1402 1400 1398 1397 1399 1399 1399 1397 1395 1393 1391 1390 1389 1390 1391 1391 1389 1388 1387 1387 1387 1387 1386 1386 1386 1386 1385 1385 1384 1384 1384 1384 1384 1384 1386 1387 1390 1391 1392 1393 1394 1395 1396 1396 1398 1399 1400 1402 1404 1406 1408 1410 1412 1414 1416 1417 1419 1421 1422 1424 1426 1428 1430
1438 1437 1436 1435 1433 1432 1431 1430 1429 1427 1425 1423 1422 1421 1419 1417 1416 1414 1412 1411 1408 1406 1405 1403 1401 1398 1396 1395 1396 1397 1397 1395 1392 1390 1388 1387 1387 1388 1388 1387 1386 1385 1385 1385 1384 1384 1384 1384 1383 1383 1382 1382 1382 1381 1381 1381 1381 1381 1380 1381 1383 1386 1388 1389 1390 1391 1392 1394 1395 1396 1398 1400 1401 1403 1406 1407 1409 1411 1413 1415 1416 1418 1421 1422 1424 1426
1438 1437 1436 1435 1434 1432 1431 1429 1428 1426 1424 1422 1421 1419 1418 1417 1416 1414 1412 1411 1409 1407 1405 1404 1403 1401 1398 1395 1394 1395 1396 1394 1391 1388 1386 1385 1384 1385 1386 1385 1384 1383 1382 1382 1382 1381 1381 1381 1381 1381 1381 1380 1380 1379 1379 1378 1378 1378 1377 1377 1377 1379 1382 1384 1386 1387 1388 1390 1391 1392 1394 1395 1397 1399 1401 1403 1406 1407 1409 1411 1413 1415 1417 1419 1421 1423
1438 1437 1436 1435 1433 1431 1430 1429 1427 1426 1424 1422 1420 1419 1417 1416 1415 1414 1412 1411 1409 1408 1406 1404 1403 1401 1400 1396 1394 1394 1395 1394 1391 1388 1386 1383 1382 1382 1383 1383 1382 1381 1380 1379 1379 1379 1379 1379 1379 1379 1379 1379 1378 1378 1377 1376 1376 1375 1374 1374 1374 1374 1376 1378 1381 1383 1384 1386 1387 1388 1390 1391 1393 1395 1397 1400 1402 1404 1406 1407 1409 1411 1414 1416 1417 1419
1437 1436 1436 1434 1432 1431 1429 1428 1427 1425 1424 1422 1421 1419 1418 1416 1415 1413 1412 1410 1409 1407 1406 1404 1402 1401 1399 1396 1394 1393 1394 1393 1391 1388 1385 1382 1381 1380 1381 1381 1380 1378 1377 1377 1376 1376 1376 1376 1376 1376 1377 1377 1376 1376 1375 1374 1373 1372 1371 1371 1371 1371 1372 1373 1375 1378 1380 1381 1383 1385 1386 1388 1390 1391 1394 1396 1398 1400 1402 1404 1406 1408 1411 1412 1414 1416
1436 1435 1434 1434 1432 1430 1428 1427 1426 1425 1424 1422 1421 1419 1418 1416 1414 1413 1411 1410 1408 1406 1405 1404 1402 1400 1398 1396 1394 1393 1393 1393 1391 1388 1385 1382 1380 1379 1380 1379 1378 1376 1375 1374 1374 1373 1373 1373 1373 1374 1374 1374 1374 1374 1373 1372 1371 1370 1368 1368 1367 1368 1369 1370 1371 1373 1376 1378 1379 1381 1383 1384 1386 1388 1391 1393 1395 1397 1399 1401 1403 1405 1407 1409 1411 1413
1436 1434 1433 1432 1431 1430 1428 1426 1425 1424 1423 1422 1421 1420 1418 1416 1414 1412 1411 1409 1407 1406 1404 1402 1401 1399 1397 1395 1393 1392 1393 1392 1391 1389 1385 1381 1379 1378 1379 1378 1377 1375 1373 1372 1371 1371 1371 1371 1371 1371 1371 1371 1371 1371 1371 1370 1369 1368 1366 1365 1364 1364 1365 1366 1367 1369 1372 1374 1376 1377 1379 1381 1383 1386 1388 1390 1391 1393 1395 1397 1400 1401 1404 1406 1407 1409
1434 1433 1431 1431 1430 1429 1427 1426 1424 1423 1423 1422 1421 1420 1418 1416 1414 1413 1411 1409 1407 1405 1403 1401 1399 1397 1396 1395 1393 1392 1392 1391 1391 1389 1386 1382 1379 1377 1378 1377 1376 1374 1372 1371 1369 1368 1368 1368 1368 1368 1368 1369 1369 1369 1368 1368 1367 1366 1365 1363 1362 1361 1361 1362 1364 1366 1368 1371 1373 1375 1376 1378 1380 1382 1385 1387 1388 1390 1392 1394 1396 1398 1400 1401 1403 1405
1432 1431 1430 1429 1429 1427 1426 1425 1424 1423 1422 1421 1420 1418 1416 1415 1414 1412 1410 1408 1406 1404 1402 1399 1397 1396 1394 1393 1392 1391 1390 1390 1389 1388 1386 1382 1379 1377 1377 1376 1375 1373 1371 1369 1368 1367 1366 1366 1366 1366 1366 1366 1366 1366 1366 1366 1366 1365 1364 1362 1361 1359 1359 1359 1360 1362 1365 1367 1370 1371 1373 1374 1376 1378 1381 1383 1385 1386 1388 1390 1392 1393 1395 1397 1398 1400
1431 1430 1429 1428 1427 1427 1426 1425 1424 1423 1421 1420 1418 1417 1416 1414 1412 1410 1408 1407 1405 1403 1401 1399 1396 1394 1392 1391 1390 1388 1388 1388 1388 1386 1385 1382 1380 1377 1376 1376 1374 1371 1369 1367 1367 1366 1365 1363 1363 1364 1364 1364 1364 1363 1363 1363 1363 1363 1362 1361 1359 1358 1357 1356 1356 1358 1361 1363 1366 1368 1369 1371 1372 1374 1376 1378 1380 1382 1384 1386 1387 1389 1391 1392 1394 1395
1430 1429 1428 1427 1426 1426 1425 1424 1423 1422 1421 1419 1417 1416 1414 1412 1410 1408 1407 1406 1404 1402 1400 1398 1396 1393 1391 1390 1388 1387 1386 1386 1386 1386 1385 1383 1380 1376 1375 1374 1373 1371 1367 1366 1365 1364 1363 1361 1361 1361 1361 1361 1361 1361 1361 1361 1361 1361 1360 1359 1358 1356 1356 1355 1354 1355 1356 1359 1361 1364 1366 1367 1368 1369 1371 1373 1375 1377 1379 1381 1382 1384 1386 1388 1389 1391
1430 1428 1427 1426 1425 1425 1424 1422 1421 1420 1419 1418 1417 1415 1413 1411 1409 1407 1406 1404 1403 1401 1400 1398 1395 1393 1391 1389 1387 1386 1385 1385 1385 1385 1384 1382 1379 1376 1373 1373 1372 1370 1366 1364 1363 1362 1361 1360 1359 1359 1359 1359 1359 1359 1358 1358 1358 1358 1358 1357 1356 1356 1354 1354 1353 1353 1353 1354 1356 1358 1361 1362 1363 1365 1366 1368 1370 1372 1374 1376 1378 1380 1382 1384 1386 1387
1428 1427 1426 1425 1424 1423 1422 1421 1420 1419 1417 1416 1415 1414 1412 1410 1408 1406 1405 1404 1402 1401 1400 1398 1396 1394 1391 1389 1387 1385 1385 1384 1384 1384 1382 1381 1378 1375 1373 1372 1371 1369 1366 1363 1360 1360 1360 1359 1358 1357 1357 1357 1356 1356 1356 1356 1355 1355 1355 1355 1355 1354 1353 1353 1352 1351 1351 1351 1352 1354 1355 1357 1358 1360 1361 1363 1365 1367 1369 1371 1374 1376 1378 1381 1381 1382
1427 1426 1425 1423 1422 1421 1420 1419 1418 1417 1416 1415 1414 1412 1411 1409 1408 1406 1405 1403 1402 1401 1399 1398 1396 1395 1392 1389 1386 1385 1384 1384 1384 1383 1381 1379 1377 1374 1372 1371 1370 1368 1366 1362 1358 1356 1356 1356 1356 1356 1355 1355 1354 1354 1353 1353 1353 1352 1352 1352 1352 1352 1351 1351 1351 1351 1350 1349 1349 1350 1351 1352 1353 1355 1357 1359 1361 1363 1365 1367 1370 1372 1374 1376 1376 1377
1425 1424 1423 1421 1421 1419 1418 1417 1416 1415 1414 1413 1412 1411 1409 1408 1407 1406 1404 1403 1401 1400 1399 1397 1396 1394 1392 1389 1386 1384 1383 1383 1383 1382 1380 1379 1376 1373 1371 1370 1369 1368 1366 1364 1359 1355 1353 1353 1354 1355 1354 1353 1352 1352 1351 1351 1351 1350 1350 1350 1350 1350 1350 1350 1350 1349 1348 1347 1347 1347 1347 1347 1348 1350 1351 1354 1356 1358 1360 1362 1365 1367 1369 1370 1371 1371
1423 1422 1421 1420 1419 1418 1416 1416 1415 1413 1412 1411 1411 1409 1408 1407 1406 1404 1403 1402 1401 1400 1399 1397 1396 1394 1392 1391 1388 1385 1382 1382 1382 1381 1380 1378 1376 1373 1371 1370 1368 1367 1367 1366 1364 1359 1354 1351 1351 1352 1352 1352 1351 1350 1350 1350 1349 1348 1348 1347 1347 1347 1347 1347 1348 1348 1347 1346 1345 1344 1344 1344 1344 1345 1346 1348 1351 1352 1355 1357 1360 1361 1363 1364 1365 1366
1422 1421 1420 1418 1417 1416 1415 1414 1413 1412 1411 1410 1409 1408 1407 1406 1405 1404 1402 1401 1400 1399 1398 1396 1395 1393 1392 1391 1390 1387 1384 1381 1381 1381 1380 1378 1376 1373 1372 1370 1368 1366 1366 1366 1366 1364 1359 1353 1350 1349 1350 1350 1349 1349 1348 1348 1348 1347 1347 1346 1346 1345 1345 1345 1346 1346 1346 1345 1344 1343 1342 1341 1341 1341 1342 1344 1346 1348 1350 1352 1354 1356 1357 1358 1360 1361
1421 1420 1419 1418 1416 1415 1414 1413 1412 1411 1410 1409 1407 1406 1406 1405 1404 1403 1402 1401 1400 1398 1397 1396 1394 1392 1391 1389 1388 1386 1383 1382 1381 1381 1379 1378 1376 1373 1371 1370 1368 1366 1365 1365 1364 1363 1361 1356 1352 1350 1349 1348 1348 1348 1347 1347 1347 1346 1346 1345 1345 1344 1344 1344 1344 1345 1345 1344 1343 1342 1341 1340 1339 1339 1339 1340 1341 1343 1345 1347 1350 1351 1353 1354 1355 1357
1421 1420 1418 1417 1416 1415 1413 1412 1411 1410 1409 1408 1406 1406 1405 1404 1403 1402 1401 1400 1399 1398 1396 1395 1394 1392 1390 1388 1386 1384 1382 1381 1381 1380 1379 1377 1376 1373 1371 1370 1368 1366 1365 1363 1362 1361 1359 1357 1354 1351 1348 1347 1346 1347 1346 1346 1346 1345 1345 1345 1344 1343 1343 1343 1343 1343 1343 1343 1341 1340 1339 1338 1337 1337 1336 1336 1337 1338 1341 1343 1346 1347 1349 1351 1352 1354
1420 1419 1418 1416 1415 1414 1413 1411 1410 1409 1408 1407 1406 1405 1404 1402 1401 1401 1400 1399 1398 1397 1396 1395 1393 1392 1390 1388 1386 1383 1381 1380 1380 1379 1378 1377 1375 1373 1371 1369 1368 1367 1365 1363 1362 1360 1358 1356 1354 1352 1349 1346 1345 1345 1345 1345 1345 1344 1344 1344 1343 1343 1342 1342 1341 1341 1341 1341 1340 1338 1337 1336 1336 1335 1335 1334 1334 1335 1337 1339 1342 1344 1346 1347 1349 1351
1420 1418 1417 1416 1415 1413 1412 1411 1410 1408 1407 1406 1405 1404 1403 1402 1401 1400 1399 1398 1397 1396 1395 1394 1392 1391 1390 1388 1386 1383 1381 1379 1378 1378 1377 1376 1375 1373 1371 1369 1368 1367 1366 1364 1362 1360 1358 1355 1353 1351 1350 1347 1345 1343 1343 1343 1343 1343 1342 1342 1342 1342 1341 1341 1341 1340 1340 1339 1338 1336 1335 1334 1334 1334 1333 1332 1331 1332 1334 1336 1339 1341 1342 1345 1346 1347
1420 1418 1417 1416 1415 1413 1412 1411 1409 1408 1407 1406 1405 1403 1402 1401 1400 1399 1398 1397 1396 1395 1394 1392 1391 1390 1389 1387 1386 1384 1381 1379 1378 1377 1376 1375 1375 1373 1371 1369 1367 1366 1366 1364 1362 1360 1358 1355 1353 1351 1349 1348 1346 1344 1342 1341 1341 1341 1341 1340 1340 1340 1340 1341 1340 1340 1339 1338 1336 1335 1334 1333 1333 1333 1332 1331 1330 1331 1332 1334 1336 1337 1339 1341 1343 1344
1420 1418 1417 1416 1415 1413 1412 1410 1409 1408 1407 1406 1404 1403 1401 1401 1399 1398 1397 1396 1395 1393 1392 1391 1390 1389 1388 1386 1385 1383 1381 1380 1378 1376 1376 1375 1374 1372 1371 1368 1367 1366 1365 1364 1362 1360 1358 1356 1353 1351 1349 1347 1346 1344 1343 1341 1341 1340 1339 1339 1339 1339 1339 1339 1339 1339 1338 1336 1335 1334 1333 1333 1332 1332 1331 1331 1330 1330 1331 1332 1334 1335 1336 1338 1340 1341
1420 1418 1417 1416 1415 1413 1412 1411 1409 1408 1406 1405 1404 1402 1401 1400 1399 1397 1396 1395 1394 1392 1391 1390 1388 1387 1386 1385 1384 1382 1381 1379 1378 1376 1375 1374 1373 1371 1370 1368 1366 1364 1363 1362 1361 1360 1358 1356 1354 1352 1350 1347 1345 1343 1342 1341 1341 1340 1338 1337 1337 1337 1337 1338 1337 1337 1336 1336 1335 1333 1332 1332 1331 1331 1331 1331 1330 1331 1331 1332 1332 1333 1334 1336 1337 1338
1420 1419 1417 1416 1415 1413 1412 1411 1409 1408 1406 1405 1403 1402 1401 1399 1398 1396 1396 1394 1393 1391 1390 1388 1387 1386 1385 1384 1382 1381 1380 1379 1377 1376 1374 1373 1372 1371 1369 1367 1366 1363 1362 1361 1360 1358 1357 1356 1354 1352 1350 1348 1346 1343 1342 1341 1340 1339 1338 1337 1336 1335 1336 1336 1336 1336 1335 1335 1334 1333 1332 1331 1331 1331 1331 1331 1331 1331 1331 1331 1331 1331 1332 1333 1335 1336
1420 1418 1417 1416 1415 1413 1412 1411 1409 1408 1406 1405 1403 1401 1400 1399 1397 1396 1394 1393 1391 1390 1389 1387 1386 1384 1383 1382 1381 1380 1379 1378 1376 1375 1374 1372 1371 1370 1369 1367 1365 1363 1361 1359 1358 1357 1356 1354 1353 1351 1349 1348 1346 1344 1342 1341 1340 1340 1339 1337 1336 1335 1335 1335 1335 1335 1334 1333 1333 1332 1331 1331 1330 1330 1330 1331 1331 1331 1331 1331 1330 1330 1331 1331 1332 1334
1420 1419 1417 1416 1414 1413 1411 1410 1409 1407 1406 1405 1403 1401 1400 1398 1397 1395 1393 1391 1390 1389 1387 1386 1384 1382 1381 1380 1379 1378 1378 1376 1375 1374 1373 1371 1370 1369 1367 1366 1365 1363 1361 1358 1357 1355 1354 1353 1351 1350 1348 1347 1346 1343 1341 1340 1340 1339 1339 1338 1336 1335 1334 1334 1334 1334 1333 1332 1331 1331 1330 1330 1329 1329 1329 1329 1330 1330 1331 1330 1330 1329 1329 1330 1331 1332
1420 1418 1417 1416 1414 1413 1411 1410 1408 1407 1406 1404 1403 1401 1400 1398 1397 1395 1393 1391 1390 1388 1387 1385 1383 1381 1379 1377 1376 1376 1376 1375 1374 1373 1371 1370 1369 1367 1366 1365 1363 1361 1360 1358 1356 1353 1352 1351 1350 1349 1347 1346 1345 1343 1341 1340 1339 1339 1338 1337 1336 1335 1334 1333 1332 1332 1332 1331 1331 1330 1329 1328 1328 1328 1328 1327 1327 1328 1329 1329 1328 1328 1328 1328 1329 1330
1419 1418 1416 1415 1414 1412 1411 1409 1408 1406 1405 1404 1402 1401 1399 1398 1396 1395 1393 1391 1390 1388 1386 1385 1383 1381 1379 1377 1375 1374 1373 1372 1372 1371 1370 1369 1367 1366 1365 1363 1362 1361 1359 1357 1355 1352 1350 1349 1348 1347 1346 1345 1343 1342 1341 1339 1339 1338 1337 1337 1336 1336 1335 1333 1332 1331 1331 1330 1330 1329 1328 1327 1327 1326 1326 1326 1326 1326 1326 1326 1326 1326 1326 1327 1327 1328
1419 1417 1416 1415 1413 1412 1410 1409 1407 1406 1405 1403 1402 1400 1399 1397 1396 1395 1393 1391 1390 1388 1386 1384 1382 1380 1378 1376 1375 1373 1371 1370 1370 1369 1368 1367 1366 1365 1364 1362 1361 1359 1358 1356 1354 1352 1350 1348 1346 1345 1344 1343 1342 1341 1340 1339 1338 1337 1337 1336 1336 1335 1334 1333 1332 1331 1330 1329 1329 1328 1327 1326 1326 1325 1324 1324 1324 1324 1324 1324 1324 1325 1325 1325 1326 1326
1418 1417 1416 1414 1413 1411 1410 1409 1407 1406 1404 1403 1401 1400 1398 1397 1396 1394 1393 1391 1390 1387 1386 1384 1383 1381 1379 1376 1374 1372 1370 1368 1367 1366 1366 1365 1364 1363 1362 1361 1359 1358 1356 1355 1353 1352 1350 1348 1346 1344 1343 1341 1341 1340 1339 1339 1338 1337 1336 1335 1335 1334 1333 1332 1332 1331 1330 1329 1328 1327 1326 1325 1324 1324 1323 1322 1322 1322 1322 1322 1323 1323 1324 1324 1324 1324
1417 1416 1415 1413 1412 1411 1410 1408 1407 1405 1404 1402 1401 1399 1398 1396 1395 1394 1392 1391 1389 1387 1385 1384 1382 1381 1379 1377 1375 1373 1371 1368 1366 1365 1364 1363 1362 1361 1360 1359 1358 1356 1355 1354 1352 1351 1350 1348 1346 1344 1343 1341 1340 1339 1338 1338 1337 1337 1336 1335 1334 1333 1332 1331 1331 1330 1329 1328 1327 1326 1325 1325 1324 1323 1322 1321 1321 1321 1321 1321 1321 1322 1322 1323 1323 1323
1417 1416 1414 1413 1412 1410 1409 1408 1406 1405 1403 1401 1400 1399 1397 1396 1395 1393 1391 1390 1388 1387 1385 1383 1381 1380 1378 1377 1375 1373 1371 1369 1367 1365 1363 1361 1360 1359 1358 1357 1356 1354 1353 1352 1351 1349 1348 1347 1346 1345 1343 1341 1340 1338 1337 1337 1337 1336 1335 1334 1333 1331 1331 1330 1329 1328 1327 1326 1326 1325 1325 1325 1324 1323 1322 1321 1320 1319 1319 1320 1320 1320 1321 1321 1322 1321
1416 1415 1414 1413 1411 1410 1409 1407 1406 1405 1403 1401 1400 1398 1396 1396 1395 1393 1391 1389 1388 1386 1385 1383 1381 1379 1377 1376 1374 1372 1371 1369 1367 1365 1363 1361 1360 1358 1356 1355 1353 1352 1351 1349 1348 1347 1346 1345 1345 1344 1343 1342 1341 1339 1338 1337 1336 1335 1334 1333 1332 1331 1330 1328 1327 1326 1326 1326 1325 1325 1324 1324 1324 1323 1322 1321 1320 1319 1318 1318 1319 1319 1319 1320 1320 1321
1416 1415 1414 1412 1411 1410 1408 1407 1406 1404 1402 1401 1399 1398 1396 1395 1393 1392 1391 1389 1387 1386 1384 1383 1381 1379 1377 1375 1373 1372 1370 1368 1366 1365 1363 1361 1359 1357 1356 1354 1352 1350 1348 1346 1345 1344 1343 1342 1342 1342 1343 1342 1341 1340 1338 1337 1335 1334 1333 1332 1331 1331 1329 1328 1327 1326 1326 1325 1324 1324 1323 1323 1323 1322 1322 1321 1319 1318 1318 1317 1317 1318 1318 1319 1319 1320
1415 1414 1413 1412 1411 1409 1408 1406 1405 1404 1402 1401 1399 1397 1396 1394 1392 1391 1389 1388 1386 1385 1383 1382 1380 1379 1377 1375 1373 1371 1370 1368 1366 1364 1362 1361 1359 1357 1356 1354 1352 1350 1348 1346 1344 1342 1341 1339 1338 1338 1340 1341 1341 1340 1338 1336 1335 1333 1331 1331 1330 1330 1329 1327 1326 1326 1325 1324 1323 1323 1322 1322 1321 1321 1321 1321 1319 1318 1317 1317 1317 1317 1317 1317 1318 1318